[[{"header":{"parameterUnit":"m.s-1","parameterCategory":1,"la1":30.2991,"la2":30.254,"lo1":-89.0895,"lo2":-89.0444,"dy":0.0017,"dx":0.0017,"nx":28,"ny":28,"refTime":"2025-03-14T03:00:00:Z","depth":0,"parameterNumber":2,"parameterNumberName":"U-component_of_WINDS"},"data":[0,0,0,0,0,0,0,0,0,0,0,0,0,0,0,0,0,0,0,0,0,0,0,0,0,0,0,0,0,0,0,0,0,0,0,0,0,0,0,0,0,0,0,0,0,0,0,0,0,0,0,0,0,0,0,0,0,0,-0.8739,-0.8739,0,-0.8701,-0.8701,-0.87,-0.8705,-0.8706,-0.8706,-0.8707,-0.8666,-0.8664,-0.8663,0,0,0,0,0,0,0,0,0,0,0,0,0,-0.8815,-0.8814,-0.8739,-0.8739,-0.8738,-0.8701,-0.8701,-0.87,-0.8705,-0.8706,-0.8706,-0.8707,-0.8666,-0.8664,-0.8662,0,0,0,0,0,0,0,0,0,0,0,0,0,-0.878,-0.8813,-0.8739,-0.8736,-0.8736,-0.8702,-0.8701,-0.87,-0.8705,-0.8706,-0.8707,-0.8708,-0.8667,-0.8665,-0.8662,-0.8628,0,0,-0.8655,-0.8653,0,0,0,0,0,0,0,0,-0.8782,-0.8777,-0.8737,-0.8736,-0.8736,-0.8709,-0.8713,-0.8676,-0.8705,-0.8716,-0.8707,-0.8708,-0.8679,-0.8676,-0.8667,-0.8626,-0.8624,-0.8654,-0.8653,-0.8652,-0.8651,0,0,0,0,0,0,0,-0.8785,-0.8779,-0.8724,-0.8737,-0.8736,-0.8737,-0.8733,-0.8706,-0.8693,-0.8715,-0.8716,-0.8711,-0.8679,-0.8669,-0.8666,-0.8624,-0.8654,-0.8652,-0.8651,-0.865,-0.8554,-0.8553,0,0,0,0,0,0,-0.8788,-0.8781,-0.8725,-0.8723,-0.8762,-0.8734,-0.873,-0.8717,-0.8693,-0.8691,-0.8711,-0.8712,-0.8673,-0.8669,-0.8664,-0.8623,-0.8652,-0.8649,-0.8648,-0.8555,-0.8554,-0.8553,0,0,0,0,0,0,-0.879,-0.8783,-0.8727,-0.8752,-0.8745,-0.8732,-0.8717,-0.8715,-0.8705,-0.869,-0.8687,-0.8703,-0.8673,-0.8668,-0.8637,-0.8621,-0.8648,-0.8646,-0.8556,-0.8555,-0.8553,-0.8539,0,0,0,0,0,0,-0.8792,-0.8784,-0.877,-0.8752,-0.8744,-0.8701,-0.8716,-0.8714,-0.8701,-0.8702,-0.8682,-0.8679,-0.8674,-0.8641,-0.8635,-0.8618,-0.8644,-0.8558,-0.8556,-0.8554,-0.8541,-0.8537,-0.8534,0,0,0,0,0,-0.8795,-0.8767,-0.877,-0.8763,-0.8727,-0.87,-0.8695,-0.869,-0.87,-0.8686,-0.8677,-0.868,-0.8625,-0.8638,-0.8631,-0.8613,-0.8559,-0.8556,-0.8554,-0.8542,-0.8538,-0.8534,0,0,0,0,0,0,-0.8783,-0.8765,-0.8767,-0.8733,-0.8718,-0.8701,-0.8683,-0.8685,-0.8667,-0.8668,-0.8663,-0.8658,-0.8627,-0.8618,-0.8633,-0.858,-0.8593,-0.8589,-0.8586,-0.8582,-0.8579,-0.8581,-0.8642,0,0,0,0,0,-0.8777,-0.8757,-0.8742,-0.8713,-0.8706,-0.8696,-0.8684,-0.8682,-0.8665,-0.8659,-0.8647,-0.863,-0.861,-0.8596,-0.8576,-0.8541,-0.8536,-0.8525,-0.8522,-0.8519,-0.8515,-0.8496,-0.8491,-0.8545,-0.8545,-0.8545,0,0,-0.8763,-0.8751,-0.8738,-0.8711,-0.8699,-0.8677,-0.869,-0.8667,-0.8651,-0.8655,-0.8625,-0.8616,-0.8598,-0.8565,-0.855,-0.8556,-0.85,-0.8516,-0.8514,-0.8511,-0.8493,-0.8488,-0.8483,-0.8544,-0.8544,-0.8544,0,0,-0.8727,-0.8716,-0.8691,-0.8679,-0.8662,-0.8656,-0.865,-0.8633,-0.8627,-0.8598,-0.86,-0.8581,-0.8546,-0.8532,-0.8521,-0.8483,-0.8484,-0.8476,-0.8458,-0.8439,-0.8435,-0.8431,-0.8416,-0.8411,-0.8473,-0.8473,-0.8473,0,-0.8712,-0.868,-0.8678,-0.8654,-0.8642,-0.8647,-0.8621,-0.861,-0.8586,-0.8577,-0.8585,-0.8541,-0.8529,-0.8493,-0.8484,-0.8475,-0.8468,-0.8477,-0.8436,-0.8432,-0.8428,-0.8414,-0.8408,-0.8472,-0.8472,-0.8472,-0.8472,0,-0.8662,-0.864,-0.8623,-0.86,-0.8587,-0.8562,-0.8556,-0.8542,-0.8542,-0.8536,-0.8506,-0.8492,-0.847,-0.8462,-0.8461,-0.8426,-0.843,-0.8437,-0.845,-0.8422,-0.8408,-0.8403,-0.8471,-0.8471,-0.8471,-0.8471,0,0,-0.8615,-0.8594,-0.8587,-0.8577,-0.8559,-0.8542,-0.8519,-0.8497,-0.8485,-0.847,-0.8449,-0.842,-0.8427,-0.8414,-0.8412,-0.8396,-0.8366,-0.8405,-0.8404,-0.8397,-0.8326,-0.8319,-0.8313,-0.8368,-0.8367,-0.8367,-0.8327,0,-0.8576,-0.8534,-0.8532,-0.8494,-0.8474,-0.8479,-0.8459,-0.8445,-0.8439,-0.8421,-0.8415,-0.8393,-0.8405,-0.8397,-0.8381,-0.8373,-0.8351,-0.8376,-0.8348,-0.8347,-0.835,-0.8306,-0.8299,-0.8262,-0.8322,-0.8321,-0.832,0,-0.8524,-0.8507,-0.8467,-0.8453,-0.8444,-0.8426,-0.8407,-0.839,-0.8375,-0.8372,-0.8359,-0.836,-0.8336,-0.8352,-0.8319,-0.8336,-0.8325,-0.8319,-0.8318,-0.8313,-0.833,-0.8298,-0.825,-0.8244,-0.8312,-0.8313,-0.8314,0,-0.8491,-0.846,-0.8432,-0.8423,-0.8406,-0.8393,-0.8385,-0.8372,-0.836,-0.8344,-0.8335,-0.8317,-0.8306,-0.8291,-0.8287,-0.8299,-0.8253,-0.8269,-0.8249,-0.8249,-0.8237,-0.8237,-0.8184,-0.8234,-0.8234,-0.8234,-0.8234,0,-0.8446,-0.8421,-0.8417,-0.8399,-0.8372,-0.8371,-0.8343,-0.8337,-0.8325,-0.8306,-0.8311,-0.8293,-0.829,-0.8272,-0.8269,-0.8241,-0.8237,-0.8233,-0.8232,-0.8231,-0.8231,-0.8222,-0.8223,-0.8232,-0.8233,-0.8233,-0.8233,0,-0.8404,-0.84,-0.837,-0.8357,-0.8354,-0.8334,-0.8323,-0.8306,-0.8302,-0.8278,-0.8272,-0.8265,-0.8244,-0.824,-0.8214,-0.8212,-0.8179,-0.8182,-0.8184,-0.8183,-0.8163,-0.8164,-0.81,-0.8091,-0.8148,-0.8148,-0.8148,0,-0.8374,-0.8355,-0.8341,-0.8329,-0.8321,-0.8302,-0.829,-0.8289,-0.8276,-0.8259,-0.8245,-0.8225,-0.8208,-0.8174,-0.8166,-0.8147,-0.8148,-0.8127,-0.8145,-0.8145,-0.8146,-0.8146,-0.8144,-0.8123,-0.8122,-0.8122,-0.8121,0,-0.8322,-0.8321,-0.8304,-0.8286,-0.8272,-0.8258,-0.8244,-0.8234,-0.8232,-0.8218,-0.8196,-0.8184,-0.8159,-0.8138,-0.812,-0.8112,-0.8115,-0.8116,-0.811,-0.8108,-0.8109,-0.8107,-0.8172,-0.8117,-0.8117,-0.8118,-0.8118,-0.8118,-0.8283,-0.8267,-0.8254,-0.8235,-0.8225,-0.8213,-0.8197,-0.8192,-0.8174,-0.8154,-0.8155,-0.8132,-0.8119,-0.8095,-0.8086,-0.8068,-0.8074,-0.8066,-0.8064,-0.8061,-0.8058,-0.8115,-0.8065,-0.8065,-0.8065,-0.8065,-0.8065,0,-0.8229,-0.8222,-0.8205,-0.8186,-0.8171,-0.8179,-0.8165,-0.8151,-0.8131,-0.8119,-0.8104,-0.808,-0.8061,-0.8053,-0.8034,-0.8021,-0.8022,-0.8016,-0.8015,-0.8013,-0.8054,-0.8061,-0.8015,-0.8015,-0.8015,-0.8015,-0.8015,-0.8015,-0.8199,-0.8171,-0.817,-0.8138,-0.8131,-0.8108,-0.81,-0.8089,-0.8079,-0.8053,-0.8037,-0.8033,-0.8023,-0.8003,-0.7986,-0.7984,-0.7976,-0.7969,-0.7967,-0.8005,-0.801,-0.8015,-0.8021,-0.7968,-0.7968,-0.7928,-0.7927,-0.7927]},{"header":{"parameterUnit":"m.s-1","parameterCategory":1,"la1":30.2991,"la2":30.254,"lo1":-89.0895,"lo2":-89.0444,"dy":0.0017,"dx":0.0017,"nx":28,"ny":28,"refTime":"2025-03-14T03:00:00:Z","depth":0,"parameterNumber":3,"parameterNumberName":"V-component_of_WINDS"},"data":[0,0,0,0,0,0,0,0,0,0,0,0,0,0,0,0,0,0,0,0,0,0,0,0,0,0,0,0,0,0,0,0,0,0,0,0,0,0,0,0,0,0,0,0,0,0,0,0,0,0,0,0,0,0,0,0,0,0,4.292,4.2918,0,4.2816,4.2815,4.2814,4.2702,4.2701,4.2699,4.2698,4.2589,4.2588,4.2587,0,0,0,0,0,0,0,0,0,0,0,0,0,4.3017,4.3016,4.292,4.2918,4.2917,4.2816,4.2815,4.2813,4.2703,4.2701,4.2699,4.2697,4.259,4.2588,4.2586,0,0,0,0,0,0,0,0,0,0,0,0,0,4.2951,4.3016,4.292,4.285,4.2842,4.2817,4.2815,4.2813,4.2703,4.2701,4.2698,4.2696,4.259,4.2588,4.2586,4.262,0,0,4.258,4.2579,0,0,0,0,0,0,0,0,4.2955,4.2947,4.2861,4.2855,4.2846,4.277,4.2809,4.2748,4.2704,4.2756,4.2698,4.2695,4.2651,4.2644,4.263,4.2615,4.2611,4.258,4.2578,4.2577,4.2577,0,0,0,0,0,0,0,4.2959,4.2951,4.2879,4.286,4.2851,4.2822,4.281,4.2797,4.2718,4.2751,4.2743,4.2732,4.2647,4.2632,4.2626,4.2609,4.258,4.2578,4.2576,4.2576,4.2615,4.2617,0,0,0,0,0,0,4.2975,4.2956,4.2882,4.2875,4.2896,4.2822,4.2809,4.2797,4.2718,4.2704,4.2734,4.2728,4.2637,4.2629,4.2622,4.2656,4.2577,4.2575,4.2574,4.2613,4.2616,4.2618,0,0,0,0,0,0,4.2978,4.297,4.2886,4.2913,4.29,4.2823,4.2811,4.2796,4.2781,4.2705,4.269,4.2734,4.2635,4.2625,4.2621,4.2651,4.2574,4.2572,4.261,4.2614,4.2617,4.2725,0,0,0,0,0,0,4.2981,4.2971,4.2985,4.2914,4.2899,4.2889,4.2812,4.2796,4.2778,4.2768,4.2701,4.2688,4.2632,4.2625,4.2619,4.2646,4.2571,4.2607,4.2612,4.2616,4.2719,4.2732,4.2743,0,0,0,0,0,4.2985,4.3019,4.2986,4.2978,4.2915,4.2891,4.2882,4.2818,4.2781,4.2793,4.2744,4.269,4.2648,4.2626,4.2618,4.2645,4.2605,4.261,4.2615,4.2713,4.2729,4.2743,0,0,0,0,0,0,4.3094,4.3009,4.2971,4.2984,4.2946,4.2872,4.2886,4.2837,4.2808,4.28,4.2721,4.2706,4.2712,4.2677,4.2654,4.2673,4.2619,4.2623,4.2696,4.271,4.2722,4.2731,4.2569,0,0,0,0,0,4.312,4.3109,4.3034,4.3052,4.3035,4.2964,4.2951,4.2905,4.2862,4.2845,4.2795,4.2755,4.2732,4.2719,4.2694,4.2712,4.2695,4.2727,4.2739,4.275,4.2754,4.276,4.2773,4.2635,4.2635,4.2635,0,0,4.3173,4.3125,4.3123,4.3073,4.3038,4.3027,4.2951,4.2943,4.2934,4.2843,4.2837,4.2799,4.2748,4.2755,4.2756,4.2727,4.2788,4.2756,4.2765,4.2764,4.2767,4.278,4.2792,4.2639,4.2638,4.2638,0,0,4.3265,4.3227,4.3238,4.3204,4.3152,4.3104,4.3107,4.304,4.3011,4.3004,4.2935,4.2922,4.2885,4.2851,4.2829,4.2905,4.2854,4.2899,4.2964,4.297,4.2981,4.299,4.3017,4.3028,4.2903,4.2904,4.2904,0,4.3337,4.3319,4.325,4.3246,4.3225,4.3142,4.3152,4.3122,4.3064,4.3051,4.3019,4.297,4.293,4.2928,4.2946,4.2931,4.2931,4.2907,4.2985,4.2994,4.3001,4.3026,4.3036,4.2909,4.2909,4.2908,4.2908,0,4.3411,4.3399,4.3414,4.3361,4.3341,4.3344,4.3274,4.3262,4.3217,4.3172,4.3164,4.3112,4.3075,4.307,4.3026,4.3061,4.3045,4.3,4.2944,4.3022,4.3043,4.3052,4.2918,4.2916,4.2914,4.2912,0,0,4.3571,4.3478,4.3484,4.3459,4.3394,4.3382,4.338,4.3344,4.3336,4.3297,4.3293,4.3262,4.322,4.3195,4.3146,4.3151,4.3214,4.3105,4.3103,4.3128,4.3249,4.3284,4.3296,4.3179,4.318,4.3181,4.3253,0,4.3652,4.3645,4.3581,4.3591,4.3579,4.3498,4.3496,4.3455,4.3412,4.3394,4.3345,4.3325,4.3271,4.3255,4.3257,4.3206,4.3237,4.32,4.3173,4.3173,4.319,4.3307,4.3344,4.3414,4.3261,4.3262,4.3263,0,4.3746,4.3714,4.3724,4.3657,4.3649,4.3649,4.3609,4.3593,4.3544,4.3512,4.3483,4.3427,4.3418,4.3365,4.3351,4.3327,4.3311,4.3284,4.3285,4.3281,4.3224,4.3307,4.3435,4.3446,4.3276,4.3275,4.3274,0,4.3863,4.3821,4.3821,4.3802,4.3724,4.3725,4.3692,4.3641,4.3622,4.3587,4.3574,4.3538,4.3519,4.3491,4.3426,4.3393,4.3419,4.3361,4.3392,4.3394,4.3402,4.3403,4.3531,4.3391,4.3391,4.3391,4.3391,0,4.396,4.397,4.3873,4.3873,4.388,4.3805,4.3814,4.3773,4.3727,4.3717,4.3644,4.3635,4.3549,4.353,4.3478,4.3474,4.3466,4.3439,4.3425,4.3446,4.345,4.3436,4.343,4.3394,4.3393,4.3392,4.3392,0,4.4093,4.4029,4.4023,4.3949,4.3931,4.3939,4.3875,4.3871,4.3822,4.381,4.3803,4.3726,4.37,4.3631,4.3587,4.3552,4.3563,4.3537,4.358,4.3572,4.3607,4.3605,4.3732,4.3744,4.3596,4.3598,4.3599,0,4.4161,4.4166,4.4092,4.408,4.405,4.4032,4.4013,4.3938,4.3921,4.3863,4.3866,4.3834,4.3805,4.3766,4.3706,4.3671,4.3644,4.3691,4.3638,4.3659,4.3645,4.3646,4.3646,4.3703,4.3705,4.3707,4.3708,0,4.4287,4.4254,4.423,4.4194,4.4173,4.4141,4.4105,4.4099,4.4014,4.3998,4.397,4.3948,4.3902,4.3871,4.3826,4.379,4.3735,4.3724,4.373,4.3752,4.3777,4.3764,4.3612,4.3722,4.3721,4.372,4.3719,4.3719,4.4389,4.439,4.4338,4.4312,4.4277,4.4244,4.4237,4.4186,4.4163,4.412,4.4076,4.4054,4.4001,4.3935,4.3903,4.3883,4.3854,4.3862,4.3864,4.3868,4.3877,4.3779,4.3874,4.3873,4.3873,4.3872,4.3872,0,4.4513,4.4475,4.4452,4.4404,4.4383,4.4332,4.4288,4.4275,4.4256,4.4212,4.4184,4.4151,4.412,4.4056,4.4018,4.4014,4.3988,4.4007,4.4007,4.4,4.3905,4.3904,4.4029,4.4029,4.4029,4.4029,4.4029,4.4029,4.4575,4.4573,4.4534,4.4512,4.4473,4.4451,4.443,4.4398,4.4363,4.433,4.4304,4.4262,4.421,4.4167,4.4135,4.4117,4.4107,4.4134,4.4108,4.4021,4.4006,4.3992,4.3991,4.4132,4.4133,4.4204,4.4205,4.4206]}]]